Regional Weather Roundup
Issued by NWS Albany, NY

Home | Current Version | Previous Version | Text Only | Print | Product List | Glossary On
Versions: 1 2 3 4 5 6 7 8 9 10 11 12 13 14 15 16 17 18 19 20 21 22 23 24 25 26 27 28 29 30 31 32 33 34 35 36 37 38 39 40 41 42 43 44 45 46 47 48 49 50
000
ASUS41 KALY 042210
RWRALY

NEW YORK STATE HOURLY WEATHER ROUNDUP
NATIONAL WEATHER SERVICE ALBANY NY
600 PM EDT MON MAY 04 2015

NOTE: "FAIR" INDICATES FEW OR NO CLOUDS BELOW 12,000 FEET WITH NO
SIGNIFICANT WEATHER AND/OR NO OBSTRUCTIONS TO VISIBILITY.

NYZ032-033-038>043-046>054-057>066-NYZ062>081-042300-
EAST


CITY           SKY/WX    TMP DP  RH WIND       PRES   REMARKS
ALBANY         PTSUNNY   84  37  18 SW13      30.01F
GLENS FALLS    MOSUNNY   82  39  21 W13G20    30.00S
POUGHKEEPSIE   SUNNY     85  37  18 S10G20    30.05F
NEWBURGH       MOSUNNY   82  41  23 SW14G23   30.09F
MONTGOMERY     SUNNY     83  42  23 SW15G24   30.06F
WHITE PLAINS   MOSUNNY   76  43  30 S13G20    30.12F
ISLIP          MOSUNNY   69  44  40 S16       30.16S
NEW YORK CITY  MOSUNNY   78  46  32 S14       30.11F
CENTRAL PARK   SUNNY     83  39  21 SW9G20    30.14S
$$

NYZ005>009-017-018-044>046-055-056-042300-
CENTRAL


CITY           SKY/WX    TMP DP  RH WIND       PRES   REMARKS
FULTON         CLOUDY    69  46  43 NW6       30.04R
SYRACUSE       CLOUDY    74  47  38 NW8       30.03R
ROME           LGT RAIN  76  42  29 W13       30.03S
ELMIRA         CLOUDY    82  41  23 W13       30.04S
BINGHAMTON     CLOUDY    77  39  25 SW14      30.08F
MONTICELLO     SUNNY     79  39  24 SW10G20   30.12S
$$

NYZ026>034-041>043-042300-
NORTH


CITY           SKY/WX    TMP DP  RH WIND       PRES   REMARKS
WATERTOWN      LGT RAIN  68  48  48 VRB3      30.02S
FORT DRUM      NOT AVBL
MASSENA        LGT RAIN  72  49  44 W16G29    29.99R
SARANAC LAKE   CLOUDY    71  38  29 SW13G20   30.02R
PLATTSBURGH    PTSUNNY   80  38  22 VRB6G16   29.94S
$$

NYZ001>004-010>016-019>021-042300-
WEST


CITY           SKY/WX    TMP DP  RH WIND       PRES   REMARKS
NIAGARA FALLS  CLOUDY    69  54  58 SW16      30.05R
BUFFALO        CLOUDY    58  49  72 SW18      30.08S
DUNKIRK        LGT RAIN  64  54  69 W15G28    30.12R
JAMESTOWN      CLOUDY    66  52  59 W14G20    30.15R
WELLSVILLE     CLOUDY    76  42  29 W10       30.13S
ROCHESTER      CLOUDY    75  48  38 W14       30.05R
PENN YAN       CLOUDY    76  46  34 NW15G22   30.06R
$$

             KEY
       WCI = WIND CHILL INDEX
       VSB = VISIBILITY
       HX  = HEAT INDEX
$$


USA.gov is the U.S. government's official web portal to all federal, state and local government web resources and services.